Year,Month,Day,Hour,Minute,Value (Times are PST for barometer in hPa)
2013,06,26,00,00,988.01
2013,06,26,00,01,988.01
2013,06,26,00,02,988.05
2013,06,26,00,03,988.05
2013,06,26,00,04,988.05
2013,06,26,00,05,988.05
2013,06,26,00,06,988.05
2013,06,26,00,07,988.05
2013,06,26,00,08,988.05
2013,06,26,00,09,988.05
2013,06,26,00,10,988.05
2013,06,26,00,11,988.05
2013,06,26,00,12,988.05
2013,06,26,00,13,988.05
2013,06,26,00,14,988.05
2013,06,26,00,15,988.05
2013,06,26,00,16,988.05
2013,06,26,00,17,988.08
2013,06,26,00,18,988.08
2013,06,26,00,19,988.08
2013,06,26,00,20,988.08
2013,06,26,00,21,988.08
2013,06,26,00,22,988.08
2013,06,26,00,23,988.08
2013,06,26,00,24,988.08
2013,06,26,00,25,988.08
2013,06,26,00,26,988.08
2013,06,26,00,27,988.08
2013,06,26,00,28,988.08
2013,06,26,00,29,988.08
2013,06,26,00,30,988.08
2013,06,26,00,31,988.08
2013,06,26,00,32,988.05
2013,06,26,00,33,988.05
2013,06,26,00,34,988.05
2013,06,26,00,35,988.05
2013,06,26,00,36,988.05
2013,06,26,00,37,988.05
2013,06,26,00,38,988.05
2013,06,26,00,39,988.05
2013,06,26,00,40,988.05
2013,06,26,00,41,988.05
2013,06,26,00,42,988.05
2013,06,26,00,43,988.05
2013,06,26,00,44,988.05
2013,06,26,00,45,988.05
2013,06,26,00,46,988.05
2013,06,26,00,47,988.01
2013,06,26,00,48,988.01
2013,06,26,00,49,988.01
2013,06,26,00,50,988.01
2013,06,26,00,51,988.01
2013,06,26,00,52,988.01
2013,06,26,00,53,988.01
2013,06,26,00,54,988.01
2013,06,26,00,55,988.01
2013,06,26,00,56,988.01
2013,06,26,00,57,988.01
2013,06,26,00,58,988.01
2013,06,26,00,59,988.01
2013,06,26,01,00,988.01
2013,06,26,01,01,988.01
2013,06,26,01,02,987.98
2013,06,26,01,03,987.98
2013,06,26,01,04,987.98
2013,06,26,01,05,987.98
2013,06,26,01,06,987.98
2013,06,26,01,07,987.98
2013,06,26,01,08,987.98
2013,06,26,01,09,987.98
2013,06,26,01,10,987.98
2013,06,26,01,11,987.98
2013,06,26,01,12,987.98
2013,06,26,01,13,987.98
2013,06,26,01,14,987.98
2013,06,26,01,15,987.98
2013,06,26,01,16,987.98
2013,06,26,01,17,988.01
2013,06,26,01,18,988.01
2013,06,26,01,19,988.01
2013,06,26,01,20,988.01
2013,06,26,01,21,988.01
2013,06,26,01,22,988.01
2013,06,26,01,23,988.01
2013,06,26,01,24,988.01
2013,06,26,01,25,988.01
2013,06,26,01,26,988.01
2013,06,26,01,27,988.01
2013,06,26,01,28,988.01
2013,06,26,01,29,988.01
2013,06,26,01,30,988.01
2013,06,26,01,31,988.01
2013,06,26,01,32,988.05
2013,06,26,01,33,988.05
2013,06,26,01,34,988.05
2013,06,26,01,35,988.05
2013,06,26,01,36,988.05
2013,06,26,01,37,988.05
2013,06,26,01,38,988.05
2013,06,26,01,39,988.05
2013,06,26,01,40,988.05
2013,06,26,01,41,988.05
2013,06,26,01,42,988.05
2013,06,26,01,43,988.05
2013,06,26,01,44,988.05
2013,06,26,01,45,988.05
2013,06,26,01,46,988.05
2013,06,26,01,47,988.05
2013,06,26,01,48,987.98
2013,06,26,01,49,987.98
2013,06,26,01,50,987.98
2013,06,26,01,51,987.98
2013,06,26,01,52,987.98
2013,06,26,01,53,987.98
2013,06,26,01,54,987.98
2013,06,26,01,55,987.98
2013,06,26,01,56,987.98
2013,06,26,01,57,987.98
2013,06,26,01,58,987.98
2013,06,26,01,59,987.98
2013,06,26,02,00,987.98
2013,06,26,02,01,987.98
2013,06,26,02,02,987.98
2013,06,26,02,03,987.98
2013,06,26,02,04,987.98
2013,06,26,02,05,987.98
2013,06,26,02,06,987.98
2013,06,26,02,07,987.98
2013,06,26,02,08,987.98
2013,06,26,02,09,987.98
2013,06,26,02,10,987.98
2013,06,26,02,11,987.98
2013,06,26,02,12,987.98
2013,06,26,02,13,987.98
2013,06,26,02,14,987.98
2013,06,26,02,15,987.98
2013,06,26,02,16,987.98
2013,06,26,02,17,987.98
2013,06,26,02,18,988.01
2013,06,26,02,19,988.01
2013,06,26,02,20,988.01
2013,06,26,02,21,988.01
2013,06,26,02,22,988.01
2013,06,26,02,23,988.01
2013,06,26,02,24,988.01
2013,06,26,02,25,988.01
2013,06,26,02,26,988.01
2013,06,26,02,27,988.01
2013,06,26,02,28,988.01
2013,06,26,02,29,988.01
2013,06,26,02,30,988.01
2013,06,26,02,31,988.01
2013,06,26,02,32,988.01
2013,06,26,02,33,988.08
2013,06,26,02,34,988.08
2013,06,26,02,35,988.08
2013,06,26,02,36,988.08
2013,06,26,02,37,988.08
2013,06,26,02,38,988.08
2013,06,26,02,39,988.08
2013,06,26,02,40,988.08
2013,06,26,02,41,988.08
2013,06,26,02,42,988.08
2013,06,26,02,43,988.08
2013,06,26,02,44,988.08
2013,06,26,02,45,988.08
2013,06,26,02,46,988.08
2013,06,26,02,47,988.08
2013,06,26,02,48,988.55
2013,06,26,02,49,988.55
2013,06,26,02,50,988.55
2013,06,26,02,51,988.55
2013,06,26,02,52,988.55
2013,06,26,02,53,988.55
2013,06,26,02,54,988.55
2013,06,26,02,55,988.55
2013,06,26,02,56,988.55
2013,06,26,02,57,988.55
2013,06,26,02,58,988.55
2013,06,26,02,59,988.55
2013,06,26,03,00,988.55
2013,06,26,03,01,988.55
2013,06,26,03,02,988.55
2013,06,26,03,03,988.55
2013,06,26,03,04,988.55
2013,06,26,03,05,988.55
2013,06,26,03,06,988.55
2013,06,26,03,07,988.55
2013,06,26,03,08,988.55
2013,06,26,03,09,988.55
2013,06,26,03,10,988.55
2013,06,26,03,11,988.55
2013,06,26,03,12,988.55
2013,06,26,03,13,988.55
2013,06,26,03,14,988.55
2013,06,26,03,15,988.55
2013,06,26,03,16,988.55
2013,06,26,03,17,988.55
2013,06,26,03,18,988.59
2013,06,26,03,19,988.59
2013,06,26,03,20,988.59
2013,06,26,03,21,988.59
2013,06,26,03,22,988.59
2013,06,26,03,23,988.59
2013,06,26,03,24,988.59
2013,06,26,03,25,988.59
2013,06,26,03,26,988.59
2013,06,26,03,27,988.59
2013,06,26,03,28,988.59
2013,06,26,03,29,988.59
2013,06,26,03,30,988.59
2013,06,26,03,31,988.59
2013,06,26,03,32,988.59
2013,06,26,03,33,988.72
2013,06,26,03,34,988.72
2013,06,26,03,35,988.72
2013,06,26,03,36,988.72
2013,06,26,03,37,988.72
2013,06,26,03,38,988.72
2013,06,26,03,39,988.72
2013,06,26,03,40,988.72
2013,06,26,03,41,988.72
2013,06,26,03,42,988.72
2013,06,26,03,43,988.72
2013,06,26,03,44,988.72
2013,06,26,03,45,988.72
2013,06,26,03,46,988.72
2013,06,26,03,47,988.72
2013,06,26,03,48,989.03
2013,06,26,03,49,989.03
2013,06,26,03,50,989.03
2013,06,26,03,51,989.03
2013,06,26,03,52,989.03
2013,06,26,03,53,989.03
2013,06,26,03,54,989.03
2013,06,26,03,55,989.03
2013,06,26,03,56,989.03
2013,06,26,03,57,989.03
2013,06,26,03,58,989.03
2013,06,26,03,59,989.03
2013,06,26,04,00,989.03
2013,06,26,04,01,989.03
2013,06,26,04,02,989.03
2013,06,26,04,03,989.13
2013,06,26,04,04,989.13
2013,06,26,04,05,989.13
2013,06,26,04,06,989.13
2013,06,26,04,07,989.13
2013,06,26,04,08,989.13
2013,06,26,04,09,989.13
2013,06,26,04,10,989.13
2013,06,26,04,11,989.13
2013,06,26,04,12,989.13
2013,06,26,04,13,989.13
2013,06,26,04,14,989.13
2013,06,26,04,15,989.13
2013,06,26,04,16,989.13
2013,06,26,04,17,989.13
2013,06,26,04,18,989.16
2013,06,26,04,19,989.16
2013,06,26,04,20,989.16
2013,06,26,04,21,989.16
2013,06,26,04,22,989.16
2013,06,26,04,23,989.16
2013,06,26,04,24,989.16
2013,06,26,04,25,989.16
2013,06,26,04,26,989.16
2013,06,26,04,27,989.16
2013,06,26,04,28,989.16
2013,06,26,04,29,989.16
2013,06,26,04,30,989.16
2013,06,26,04,31,989.16
2013,06,26,04,32,989.16
2013,06,26,04,33,989.20
2013,06,26,04,34,989.20
2013,06,26,04,35,989.20
2013,06,26,04,36,989.20
2013,06,26,04,37,989.20
2013,06,26,04,38,989.20
2013,06,26,04,39,989.20
2013,06,26,04,40,989.20
2013,06,26,04,41,989.20
2013,06,26,04,42,989.20
2013,06,26,04,43,989.20
2013,06,26,04,44,989.20
2013,06,26,04,45,989.20
2013,06,26,04,46,989.20
2013,06,26,04,47,989.20
2013,06,26,04,48,989.20
2013,06,26,04,49,989.47
2013,06,26,04,50,989.47
2013,06,26,04,51,989.47
2013,06,26,04,52,989.47
2013,06,26,04,53,989.47
2013,06,26,04,54,989.47
2013,06,26,04,55,989.47
2013,06,26,04,56,989.47
2013,06,26,04,57,989.47
2013,06,26,04,58,989.47
2013,06,26,04,59,989.47
2013,06,26,05,00,989.47
2013,06,26,05,01,989.47
2013,06,26,05,02,989.47
2013,06,26,05,03,989.43
2013,06,26,05,04,989.43
2013,06,26,05,05,989.43
2013,06,26,05,06,989.43
2013,06,26,05,07,989.43
2013,06,26,05,08,989.43
2013,06,26,05,09,989.43
2013,06,26,05,10,989.43
2013,06,26,05,11,989.43
2013,06,26,05,12,989.43
2013,06,26,05,13,989.43
2013,06,26,05,14,989.43
2013,06,26,05,15,989.43
2013,06,26,05,16,989.43
2013,06,26,05,17,989.43
2013,06,26,05,18,989.60
2013,06,26,05,19,989.60
2013,06,26,05,20,989.60
2013,06,26,05,21,989.60
2013,06,26,05,22,989.60
2013,06,26,05,23,989.60
2013,06,26,05,24,989.60
2013,06,26,05,25,989.60
2013,06,26,05,26,989.60
2013,06,26,05,27,989.60
2013,06,26,05,28,989.60
2013,06,26,05,29,989.60
2013,06,26,05,30,989.60
2013,06,26,05,31,989.60
2013,06,26,05,32,989.60
2013,06,26,05,33,989.74
2013,06,26,05,34,989.74
2013,06,26,05,35,989.74
2013,06,26,05,36,989.74
2013,06,26,05,37,989.74
2013,06,26,05,38,989.74
2013,06,26,05,39,989.74
2013,06,26,05,40,989.74
2013,06,26,05,41,989.74
2013,06,26,05,42,989.74
2013,06,26,05,43,989.74
2013,06,26,05,44,989.74
2013,06,26,05,45,989.74
2013,06,26,05,46,989.74
2013,06,26,05,47,989.74
2013,06,26,05,48,989.98
2013,06,26,05,49,989.98
2013,06,26,05,50,989.98
2013,06,26,05,51,989.98
2013,06,26,05,52,989.98
2013,06,26,05,53,989.98
2013,06,26,05,54,989.98
2013,06,26,05,55,989.98
2013,06,26,05,56,989.98
2013,06,26,05,57,989.98
2013,06,26,05,58,989.98
2013,06,26,05,59,989.98
2013,06,26,06,00,989.98
2013,06,26,06,01,989.98
2013,06,26,06,02,989.98
2013,06,26,06,03,990.08
2013,06,26,06,04,990.08
2013,06,26,06,05,990.08
2013,06,26,06,06,990.08
2013,06,26,06,07,990.08
2013,06,26,06,08,990.08
2013,06,26,06,09,990.08
2013,06,26,06,10,990.08
2013,06,26,06,11,990.08
2013,06,26,06,12,990.08
2013,06,26,06,13,990.08
2013,06,26,06,14,990.08
2013,06,26,06,15,990.08
2013,06,26,06,16,990.08
2013,06,26,06,17,990.08
2013,06,26,06,18,990.11
2013,06,26,06,19,990.11
2013,06,26,06,20,990.11
2013,06,26,06,21,990.11
2013,06,26,06,22,990.11
2013,06,26,06,23,990.11
2013,06,26,06,24,990.11
2013,06,26,06,25,990.11
2013,06,26,06,26,990.11
2013,06,26,06,27,990.11
2013,06,26,06,28,990.11
2013,06,26,06,29,990.11
2013,06,26,06,30,990.11
2013,06,26,06,31,990.11
2013,06,26,06,32,990.11
2013,06,26,06,33,990.15
2013,06,26,06,34,990.15
2013,06,26,06,35,990.15
2013,06,26,06,36,990.15
2013,06,26,06,37,990.15
2013,06,26,06,38,990.15
2013,06,26,06,39,990.15
2013,06,26,06,40,990.15
2013,06,26,06,41,990.15
2013,06,26,06,42,990.15
2013,06,26,06,43,990.15
2013,06,26,06,44,990.15
2013,06,26,06,45,990.15
2013,06,26,06,46,990.15
2013,06,26,06,47,990.15
2013,06,26,06,48,990.15
2013,06,26,06,49,990.21
2013,06,26,06,50,990.21
2013,06,26,06,51,990.21
2013,06,26,06,52,990.21
2013,06,26,06,53,990.21
2013,06,26,06,54,990.21
2013,06,26,06,55,990.21
2013,06,26,06,56,990.21
2013,06,26,06,57,990.21
2013,06,26,06,58,990.21
2013,06,26,06,59,990.21
2013,06,26,07,00,990.21
2013,06,26,07,01,990.21
2013,06,26,07,02,990.21
2013,06,26,07,03,990.31
2013,06,26,07,04,990.31
2013,06,26,07,05,990.31
2013,06,26,07,06,990.31
2013,06,26,07,07,990.31
2013,06,26,07,08,990.31
2013,06,26,07,09,990.31
2013,06,26,07,10,990.31
2013,06,26,07,11,990.31
2013,06,26,07,12,990.31
2013,06,26,07,13,990.31
2013,06,26,07,14,990.31
2013,06,26,07,15,990.31
2013,06,26,07,16,990.31
2013,06,26,07,17,990.31
2013,06,26,07,18,990.55
2013,06,26,07,19,990.55
2013,06,26,07,20,990.55
2013,06,26,07,21,990.55
2013,06,26,07,22,990.55
2013,06,26,07,23,990.55
2013,06,26,07,24,990.55
2013,06,26,07,25,990.55
2013,06,26,07,26,990.55
2013,06,26,07,27,990.55
2013,06,26,07,28,990.55
2013,06,26,07,29,990.55
2013,06,26,07,30,990.55
2013,06,26,07,31,990.55
2013,06,26,07,32,990.55
2013,06,26,07,33,990.65
2013,06,26,07,34,990.65
2013,06,26,07,35,990.65
2013,06,26,07,36,990.65
2013,06,26,07,37,990.65
2013,06,26,07,38,990.65
2013,06,26,07,39,990.65
2013,06,26,07,40,990.65
2013,06,26,07,41,990.65
2013,06,26,07,42,990.65
2013,06,26,07,43,990.65
2013,06,26,07,44,990.65
2013,06,26,07,45,990.65
2013,06,26,07,46,990.65
2013,06,26,07,47,990.65
2013,06,26,07,48,990.45
2013,06,26,07,49,990.45
2013,06,26,07,50,990.45
2013,06,26,07,51,990.45
2013,06,26,07,52,990.45
2013,06,26,07,53,990.45
2013,06,26,07,54,990.45
2013,06,26,07,55,990.45
2013,06,26,07,56,990.45
2013,06,26,07,57,990.45
2013,06,26,07,58,990.45
2013,06,26,07,59,990.45
2013,06,26,08,00,990.45
2013,06,26,08,01,990.45
2013,06,26,08,02,990.45
2013,06,26,08,03,990.65
2013,06,26,08,04,990.65
2013,06,26,08,05,990.65
2013,06,26,08,06,990.65
2013,06,26,08,07,990.65
2013,06,26,08,08,990.65
2013,06,26,08,09,990.65
2013,06,26,08,10,990.65
2013,06,26,08,11,990.65
2013,06,26,08,12,990.65
2013,06,26,08,13,990.65
2013,06,26,08,14,990.65
2013,06,26,08,15,990.65
2013,06,26,08,16,990.65
2013,06,26,08,17,990.65
2013,06,26,08,18,990.65
2013,06,26,08,19,990.65
2013,06,26,08,20,990.65
2013,06,26,08,21,990.65
2013,06,26,08,22,990.65
2013,06,26,08,23,990.65
2013,06,26,08,24,990.65
2013,06,26,08,25,990.65
2013,06,26,08,26,990.65
2013,06,26,08,27,990.65
2013,06,26,08,28,990.65
2013,06,26,08,29,990.65
2013,06,26,08,30,990.65
2013,06,26,08,31,990.65
2013,06,26,08,32,990.65
2013,06,26,08,33,990.65
2013,06,26,08,34,990.65
2013,06,26,08,35,990.65
2013,06,26,08,36,990.65
2013,06,26,08,37,990.65
2013,06,26,08,38,990.65
2013,06,26,08,39,990.65
2013,06,26,08,40,990.65
2013,06,26,08,41,990.65
2013,06,26,08,42,990.65
2013,06,26,08,43,990.65
2013,06,26,08,44,990.65
2013,06,26,08,45,990.65
2013,06,26,08,46,990.65
2013,06,26,08,47,990.65
2013,06,26,08,48,990.72
2013,06,26,08,49,990.72
2013,06,26,08,50,990.72
2013,06,26,08,51,990.72
2013,06,26,08,52,990.72
2013,06,26,08,53,990.72
2013,06,26,08,54,990.72
2013,06,26,08,55,990.72
2013,06,26,08,56,990.72
2013,06,26,08,57,990.72
2013,06,26,08,58,990.72
2013,06,26,08,59,990.72
2013,06,26,09,00,990.72
2013,06,26,09,01,990.72
2013,06,26,09,02,990.72
2013,06,26,09,03,990.96
2013,06,26,09,04,990.96
2013,06,26,09,05,990.96
2013,06,26,09,06,990.96
2013,06,26,09,07,990.96
2013,06,26,09,08,990.96
2013,06,26,09,09,990.96
2013,06,26,09,10,990.96
2013,06,26,09,11,990.96
2013,06,26,09,12,990.96
2013,06,26,09,13,990.96
2013,06,26,09,14,990.96
2013,06,26,09,15,990.96
2013,06,26,09,16,990.96
2013,06,26,09,17,990.96
2013,06,26,09,18,991.16
2013,06,26,09,19,991.16
2013,06,26,09,20,991.16
2013,06,26,09,21,991.16
2013,06,26,09,22,991.16
2013,06,26,09,23,991.16
2013,06,26,09,24,991.16
2013,06,26,09,25,991.16
2013,06,26,09,26,991.16
2013,06,26,09,27,991.16
2013,06,26,09,28,991.16
2013,06,26,09,29,991.16
2013,06,26,09,30,991.16
2013,06,26,09,31,991.16
2013,06,26,09,32,991.16
2013,06,26,09,33,991.20
2013,06,26,09,34,991.20
2013,06,26,09,35,991.20
2013,06,26,09,36,991.20
2013,06,26,09,37,991.20
2013,06,26,09,38,991.20
2013,06,26,09,39,991.20
2013,06,26,09,40,991.20
2013,06,26,09,41,991.20
2013,06,26,09,42,991.20
2013,06,26,09,43,991.20
2013,06,26,09,44,991.20
2013,06,26,09,45,991.20
2013,06,26,09,46,991.20
2013,06,26,09,47,991.20
2013,06,26,09,48,991.20
2013,06,26,09,49,991.20
2013,06,26,09,50,991.20
2013,06,26,09,51,991.20
2013,06,26,09,52,991.20
2013,06,26,09,53,991.20
2013,06,26,09,54,991.20
2013,06,26,09,55,991.20
2013,06,26,09,56,991.20
2013,06,26,09,57,991.20
2013,06,26,09,58,991.20
2013,06,26,09,59,991.20
2013,06,26,10,00,991.20
2013,06,26,10,01,991.20
2013,06,26,10,02,991.20
2013,06,26,10,03,991.20
2013,06,26,10,04,991.20
2013,06,26,10,05,991.20
2013,06,26,10,06,991.20
2013,06,26,10,07,991.20
2013,06,26,10,08,991.20
2013,06,26,10,09,991.20
2013,06,26,10,10,991.20
2013,06,26,10,11,991.20
2013,06,26,10,12,991.20
2013,06,26,10,13,991.20
2013,06,26,10,14,991.20
2013,06,26,10,15,991.20
2013,06,26,10,16,991.20
2013,06,26,10,17,991.20
2013,06,26,10,18,991.26
2013,06,26,10,19,991.26
2013,06,26,10,20,991.26
2013,06,26,10,21,991.26
2013,06,26,10,22,991.26
2013,06,26,10,23,991.26
2013,06,26,10,24,991.26
2013,06,26,10,25,991.26
2013,06,26,10,26,991.26
2013,06,26,10,27,991.26
2013,06,26,10,28,991.26
2013,06,26,10,29,991.26
2013,06,26,10,30,991.26
2013,06,26,10,31,991.26
2013,06,26,10,32,991.26
2013,06,26,10,33,991.43
2013,06,26,10,34,991.43
2013,06,26,10,35,991.43
2013,06,26,10,36,991.43
2013,06,26,10,37,991.43
2013,06,26,10,38,991.43
2013,06,26,10,39,991.43
2013,06,26,10,40,991.43
2013,06,26,10,41,991.43
2013,06,26,10,42,991.43
2013,06,26,10,43,991.43
2013,06,26,10,44,991.43
2013,06,26,10,45,991.43
2013,06,26,10,46,991.43
2013,06,26,10,47,991.43
2013,06,26,10,48,991.70
2013,06,26,10,49,991.70
2013,06,26,10,50,991.70
2013,06,26,10,51,991.70
2013,06,26,10,52,991.70
2013,06,26,10,53,991.70
2013,06,26,10,54,991.70
2013,06,26,10,55,991.70
2013,06,26,10,56,991.70
2013,06,26,10,57,991.70
2013,06,26,10,58,991.70
2013,06,26,10,59,991.70
2013,06,26,11,00,991.70
2013,06,26,11,01,991.70
2013,06,26,11,02,991.70
2013,06,26,11,03,991.74
2013,06,26,11,04,991.74
2013,06,26,11,05,991.74
2013,06,26,11,06,991.74
2013,06,26,11,07,991.74
2013,06,26,11,08,991.74
2013,06,26,11,09,991.74
2013,06,26,11,10,991.74
2013,06,26,11,11,991.74
2013,06,26,11,12,991.74
2013,06,26,11,13,991.74
2013,06,26,11,14,991.74
2013,06,26,11,15,991.74
2013,06,26,11,16,991.74
2013,06,26,11,17,991.74
2013,06,26,11,18,991.94
2013,06,26,11,19,991.94
2013,06,26,11,20,991.94
2013,06,26,11,21,991.94
2013,06,26,11,22,991.94
2013,06,26,11,23,991.94
2013,06,26,11,24,991.94
2013,06,26,11,25,991.94
2013,06,26,11,26,991.94
2013,06,26,11,27,991.94
2013,06,26,11,28,991.94
2013,06,26,11,29,991.94
2013,06,26,11,30,991.94
2013,06,26,11,31,991.94
2013,06,26,11,32,991.94
2013,06,26,11,33,992.18
2013,06,26,11,34,992.18
2013,06,26,11,35,992.18
2013,06,26,11,36,992.18
2013,06,26,11,37,992.18
2013,06,26,11,38,992.18
2013,06,26,11,39,992.18
2013,06,26,11,40,992.18
2013,06,26,11,41,992.18
2013,06,26,11,42,992.18
2013,06,26,11,43,992.18
2013,06,26,11,44,992.18
2013,06,26,11,45,992.18
2013,06,26,11,46,992.18
2013,06,26,11,47,992.18
2013,06,26,11,48,992.25
2013,06,26,11,49,992.25
2013,06,26,11,50,992.25
2013,06,26,11,51,992.25
2013,06,26,11,52,992.25
2013,06,26,11,53,992.25
2013,06,26,11,54,992.25
2013,06,26,11,55,992.25
2013,06,26,11,56,992.25
2013,06,26,11,57,992.25
2013,06,26,11,58,992.25
2013,06,26,11,59,992.25
2013,06,26,12,00,992.25
2013,06,26,12,01,992.25
2013,06,26,12,02,992.25
2013,06,26,12,03,992.41
2013,06,26,12,04,992.41
2013,06,26,12,05,992.41
2013,06,26,12,06,992.41
2013,06,26,12,07,992.41
2013,06,26,12,08,992.41
2013,06,26,12,09,992.41
2013,06,26,12,10,992.41
2013,06,26,12,11,992.41
2013,06,26,12,12,992.41
2013,06,26,12,13,992.41
2013,06,26,12,14,992.41
2013,06,26,12,15,992.41
2013,06,26,12,16,992.41
2013,06,26,12,17,992.41
2013,06,26,12,18,992.62
2013,06,26,12,19,992.62
2013,06,26,12,20,992.62
2013,06,26,12,21,992.62
2013,06,26,12,22,992.62
2013,06,26,12,23,992.62
2013,06,26,12,24,992.62
2013,06,26,12,25,992.62
2013,06,26,12,26,992.62
2013,06,26,12,27,992.62
2013,06,26,12,28,992.62
2013,06,26,12,29,992.62
2013,06,26,12,30,992.62
2013,06,26,12,31,992.62
2013,06,26,12,32,992.62
2013,06,26,12,33,992.75
2013,06,26,12,34,992.75
2013,06,26,12,35,992.75
2013,06,26,12,36,992.75
2013,06,26,12,37,992.75
2013,06,26,12,38,992.75
2013,06,26,12,39,992.75
2013,06,26,12,40,992.75
2013,06,26,12,41,992.75
2013,06,26,12,42,992.75
2013,06,26,12,43,992.75
2013,06,26,12,44,992.75
2013,06,26,12,45,992.75
2013,06,26,12,46,992.75
2013,06,26,12,47,992.75
2013,06,26,12,48,992.79
2013,06,26,12,49,992.79
2013,06,26,12,50,992.79
2013,06,26,12,51,992.79
2013,06,26,12,52,992.79
2013,06,26,12,53,992.79
2013,06,26,12,54,992.79
2013,06,26,12,55,992.79
2013,06,26,12,56,992.79
2013,06,26,12,57,992.79
2013,06,26,12,58,992.79
2013,06,26,12,59,992.79
2013,06,26,13,00,992.79
2013,06,26,13,01,992.79
2013,06,26,13,02,992.79
2013,06,26,13,03,992.85
2013,06,26,13,04,992.85
2013,06,26,13,05,992.85
2013,06,26,13,06,992.85
2013,06,26,13,07,992.85
2013,06,26,13,08,992.85
2013,06,26,13,09,992.85
2013,06,26,13,10,992.85
2013,06,26,13,11,992.85
2013,06,26,13,12,992.85
2013,06,26,13,13,992.85
2013,06,26,13,14,992.85
2013,06,26,13,15,992.85
2013,06,26,13,16,992.85
2013,06,26,13,17,992.85
2013,06,26,13,18,993.23
2013,06,26,13,19,993.23
2013,06,26,13,20,993.23
2013,06,26,13,21,993.23
2013,06,26,13,22,993.23
2013,06,26,13,23,993.23
2013,06,26,13,24,993.23
2013,06,26,13,25,993.23
2013,06,26,13,26,993.23
2013,06,26,13,27,993.23
2013,06,26,13,28,993.23
2013,06,26,13,29,993.23
2013,06,26,13,30,993.23
2013,06,26,13,31,993.23
2013,06,26,13,32,993.23
2013,06,26,13,33,993.26
2013,06,26,13,34,993.26
2013,06,26,13,35,993.26
2013,06,26,13,36,993.26
2013,06,26,13,37,993.26
2013,06,26,13,38,993.26
2013,06,26,13,39,993.26
2013,06,26,13,40,993.26
2013,06,26,13,41,993.26
2013,06,26,13,42,993.26
2013,06,26,13,43,993.26
2013,06,26,13,44,993.26
2013,06,26,13,45,993.26
2013,06,26,13,46,993.26
2013,06,26,13,47,993.26
2013,06,26,13,48,993.36
2013,06,26,13,49,993.36
2013,06,26,13,50,993.36
2013,06,26,13,51,993.36
2013,06,26,13,52,993.36
2013,06,26,13,53,993.36
2013,06,26,13,54,993.36
2013,06,26,13,55,993.36
2013,06,26,13,56,993.36
2013,06,26,13,57,993.36
2013,06,26,13,58,993.36
2013,06,26,13,59,993.36
2013,06,26,14,00,993.36
2013,06,26,14,01,993.36
2013,06,26,14,02,993.36
2013,06,26,14,03,993.33
2013,06,26,14,04,993.33
2013,06,26,14,05,993.33
2013,06,26,14,06,993.33
2013,06,26,14,07,993.33
2013,06,26,14,08,993.33
2013,06,26,14,09,993.33
2013,06,26,14,10,993.33
2013,06,26,14,11,993.33
2013,06,26,14,12,993.33
2013,06,26,14,13,993.33
2013,06,26,14,14,993.33
2013,06,26,14,15,993.33
2013,06,26,14,16,993.33
2013,06,26,14,17,993.33
2013,06,26,14,18,993.74
2013,06,26,14,19,993.74
2013,06,26,14,20,993.74
2013,06,26,14,21,993.74
2013,06,26,14,22,993.74
2013,06,26,14,23,993.74
2013,06,26,14,24,993.74
2013,06,26,14,25,993.74
2013,06,26,14,26,993.74
2013,06,26,14,27,993.74
2013,06,26,14,28,993.74
2013,06,26,14,29,993.74
2013,06,26,14,30,993.74
2013,06,26,14,31,993.74
2013,06,26,14,32,993.74
2013,06,26,14,33,993.80
2013,06,26,14,34,993.80
2013,06,26,14,35,993.80
2013,06,26,14,36,993.80
2013,06,26,14,37,993.80
2013,06,26,14,38,993.80
2013,06,26,14,39,993.80
2013,06,26,14,40,993.80
2013,06,26,14,41,993.80
2013,06,26,14,42,993.80
2013,06,26,14,43,993.80
2013,06,26,14,44,993.80
2013,06,26,14,45,993.80
2013,06,26,14,46,993.80
2013,06,26,14,47,993.80
2013,06,26,14,48,994.01
2013,06,26,14,49,994.01
2013,06,26,14,50,994.01
2013,06,26,14,51,994.01
2013,06,26,14,52,994.01
2013,06,26,14,53,994.01
2013,06,26,14,54,994.01
2013,06,26,14,55,994.01
2013,06,26,14,56,994.01
2013,06,26,14,57,994.01
2013,06,26,14,58,994.01
2013,06,26,14,59,994.01
2013,06,26,15,00,994.01
2013,06,26,15,01,994.01
2013,06,26,15,02,994.01
2013,06,26,15,03,994.04
2013,06,26,15,04,994.04
2013,06,26,15,05,994.04
2013,06,26,15,06,994.04
2013,06,26,15,07,994.04
2013,06,26,15,08,994.04
2013,06,26,15,09,994.04
2013,06,26,15,10,994.04
2013,06,26,15,11,994.04
2013,06,26,15,12,994.04
2013,06,26,15,13,994.04
2013,06,26,15,14,994.04
2013,06,26,15,15,994.04
2013,06,26,15,16,994.04
2013,06,26,15,17,994.04
2013,06,26,15,18,994.14
2013,06,26,15,19,994.14
2013,06,26,15,20,994.14
2013,06,26,15,21,994.14
2013,06,26,15,22,994.14
2013,06,26,15,23,994.14
2013,06,26,15,24,994.14
2013,06,26,15,25,994.14
2013,06,26,15,26,994.14
2013,06,26,15,27,994.14
2013,06,26,15,28,994.14
2013,06,26,15,29,994.14
2013,06,26,15,30,994.14
2013,06,26,15,31,994.14
2013,06,26,15,32,994.14
2013,06,26,15,33,994.28
2013,06,26,15,34,994.28
2013,06,26,15,35,994.28
2013,06,26,15,36,994.28
2013,06,26,15,37,994.28
2013,06,26,15,38,994.28
2013,06,26,15,39,994.28
2013,06,26,15,40,994.28
2013,06,26,15,41,994.28
2013,06,26,15,42,994.28
2013,06,26,15,43,994.28
2013,06,26,15,44,994.28
2013,06,26,15,45,994.28
2013,06,26,15,46,994.28
2013,06,26,15,47,994.28
2013,06,26,15,48,994.31
2013,06,26,15,49,994.31
2013,06,26,15,50,994.31
2013,06,26,15,51,994.31
2013,06,26,15,52,994.31
2013,06,26,15,53,994.31
2013,06,26,15,54,994.31
2013,06,26,15,55,994.31
2013,06,26,15,57,994.31
2013,06,26,15,58,994.31
2013,06,26,15,59,994.31
2013,06,26,16,00,994.31
2013,06,26,16,01,994.31
2013,06,26,16,02,994.31
2013,06,26,16,03,994.34
2013,06,26,16,04,994.34
2013,06,26,16,05,994.34
2013,06,26,16,06,994.34
2013,06,26,16,07,994.34
2013,06,26,16,08,994.34
2013,06,26,16,09,994.34
2013,06,26,16,10,994.34
2013,06,26,16,11,994.34
2013,06,26,16,12,994.34
2013,06,26,16,13,994.34
2013,06,26,16,14,994.34
2013,06,26,16,15,994.34
2013,06,26,16,16,994.34
2013,06,26,16,17,994.34
2013,06,26,16,18,994.28
2013,06,26,16,19,994.28
2013,06,26,16,20,994.28
2013,06,26,16,21,994.28
2013,06,26,16,22,994.28
2013,06,26,16,23,994.28
2013,06,26,16,24,994.28
2013,06,26,16,25,994.28
2013,06,26,16,26,994.28
2013,06,26,16,27,994.28
2013,06,26,16,28,994.28
2013,06,26,16,29,994.28
2013,06,26,16,30,994.28
2013,06,26,16,31,994.28
2013,06,26,16,32,994.28
2013,06,26,16,33,994.38
2013,06,26,16,34,994.38
2013,06,26,16,35,994.38
2013,06,26,16,36,994.38
2013,06,26,16,37,994.38